Hourly Weather Barsuchiy

Today, 18 April, Sunday

Time Temperature Precipitation Wind Pressure Humidity
00:00 +8°C° 0 mm 2 mps 753 mmHg 90%
01:00 +7°C° 0 mm 2 mps 753 mmHg 90%
02:00 +7°C° 0 mm 2 mps 753 mmHg 89%
03:00 +6°C° 0 mm 2 mps 753 mmHg 89%
04:00 +6°C° 0 mm 2 mps 753 mmHg 89%
05:00 +6°C° 0 mm 2 mps 752 mmHg 89%
06:00 +6°C° 0 mm 2 mps 752 mmHg 88%
07:00 +8°C° 0 mm 3 mps 752 mmHg 79%
08:00 +10°C° 0 mm 3 mps 752 mmHg 71%
09:00 +11°C° 0 mm 3 mps 753 mmHg 63%
10:00 +12°C° 0 mm 3 mps 752 mmHg 57%
11:00 +13°C° 0 mm 3 mps 752 mmHg 51%
12:00 +14°C° 0 mm 3 mps 752 mmHg 46%
13:00 +16°C° 0 mm 3 mps 752 mmHg 45%
14:00 +16°C° 0 mm 3 mps 752 mmHg 43%
15:00 +16°C° 0 mm 3 mps 752 mmHg 42%
16:00 +16°C° 0 mm 2 mps 752 mmHg 46%
17:00 +15°C° 0 mm 2 mps 752 mmHg 50%
18:00 +15°C° 0 mm 1 mps 752 mmHg 53%
19:00 +14°C° 0 mm 1 mps 752 mmHg 58%
20:00 +13°C° 0 mm 1 mps 752 mmHg 64%
21:00 +11°C° 0 mm 1 mps 752 mmHg 69%
22:00 +11°C° 0 mm 1 mps 752 mmHg 72%
23:00 +11°C° 0 mm 1 mps 752 mmHg 76%

Tomorrow, 19 April, Monday

Time Temperature Precipitation Wind Pressure Humidity
00:00 +10°C° 0 mm 1 mps 752 mmHg 79%
01:00 +10°C° 0 mm 1 mps 752 mmHg 80%
02:00 +10°C° 0 mm 1 mps 751 mmHg 80%
03:00 +9°C° 0 mm 1 mps 751 mmHg 81%
04:00 +8°C° 0 mm 2 mps 751 mmHg 81%
05:00 +8°C° 0 mm 2 mps 751 mmHg 81%
06:00 +8°C° 0 mm 2 mps 751 mmHg 82%
07:00 +9°C° 0 mm 3 mps 751 mmHg 77%
08:00 +10°C° 0 mm 3 mps 751 mmHg 73%
09:00 +11°C° 0 mm 4 mps 751 mmHg 69%
10:00 +10°C° 0 mm 5 mps 751 mmHg 70%
11:00 +12°C° 0 mm 5 mps 751 mmHg 70%
12:00 +12°C° 0 mm 5 mps 751 mmHg 71%
13:00 +10°C° 0 mm 5 mps 751 mmHg 73%
14:00 +9°C° 0 mm 6 mps 751 mmHg 74%
15:00 +9°C° 0 mm 6 mps 751 mmHg 75%
16:00 +9°C° 0 mm 5 mps 751 mmHg 77%
17:00 +8°C° 0 mm 5 mps 751 mmHg 79%
18:00 +8°C° 0 mm 4 mps 751 mmHg 80%
19:00 +8°C° 0 mm 5 mps 752 mmHg 83%
20:00 +8°C° 0 mm 5 mps 752 mmHg 86%
21:00 +7°C° 0 mm 5 mps 752 mmHg 89%
22:00 +7°C° 0.2 mm 6 mps 752 mmHg 90%
23:00 +5°C° 0.2 mm 6 mps 752 mmHg 90%

Day after tomorrow, 20 April, Tuesday

Time Temperature Precipitation Wind Pressure Humidity
00:00 +5°C° 0.2 mm 7 mps 752 mmHg 90%
01:00 +4°C° 0.1 mm 7 mps 752 mmHg 90%
02:00 +4°C° 0.1 mm 8 mps 752 mmHg 90%
03:00 +4°C° 0.1 mm 8 mps 752 mmHg 90%
04:00 +2°C° 0.1 mm 8 mps 752 mmHg 89%
05:00 +2°C° 0.1 mm 8 mps 753 mmHg 88%
06:00 +2°C° 0.1 mm 8 mps 753 mmHg 88%
07:00 +2°C° 0 mm 8 mps 753 mmHg 87%
08:00 +2°C° 0 mm 8 mps 753 mmHg 86%
09:00 +2°C° 0 mm 9 mps 753 mmHg 86%
10:00 +3°C° 0 mm 9 mps 753 mmHg 83%
11:00 +3°C° 0 mm 9 mps 753 mmHg 80%
12:00 +5°C° 0 mm 10 mps 752 mmHg 78%
13:00 +5°C° 0 mm 10 mps 752 mmHg 76%
14:00 +5°C° 0 mm 10 mps 752 mmHg 75%
15:00 +6°C° 0 mm 10 mps 752 mmHg 74%
16:00 +4°C° 0.5 mm 11 mps 751 mmHg 77%
17:00 +4°C° 0.5 mm 11 mps 751 mmHg 81%
18:00 +3°C° 0.5 mm 11 mps 750 mmHg 84%
19:00 +4°C° 0.3 mm 12 mps 750 mmHg 85%
20:00 +4°C° 0.3 mm 12 mps 749 mmHg 85%
21:00 +4°C° 0.3 mm 13 mps 749 mmHg 86%
22:00 +4°C° 0.8 mm 12 mps 749 mmHg 84%
23:00 +4°C° 0.8 mm 12 mps 749 mmHg 83%

21 April, Wednesday

Time Temperature Precipitation Wind Pressure Humidity
00:00 +4°C° 0.8 mm 12 mps 749 mmHg 81%
01:00 +4°C° 0.4 mm 12 mps 748 mmHg 83%
02:00 +4°C° 0.4 mm 12 mps 748 mmHg 85%
03:00 +4°C° 0.4 mm 12 mps 748 mmHg 87%
04:00 +4°C° 0.4 mm 11 mps 748 mmHg 88%
05:00 +4°C° 0.4 mm 11 mps 748 mmHg 89%
06:00 +4°C° 0.4 mm 11 mps 748 mmHg 90%
07:00 +5°C° 0 mm 10 mps 748 mmHg 90%
08:00 +5°C° 0 mm 10 mps 748 mmHg 90%
09:00 +5°C° 0 mm 9 mps 749 mmHg 90%
10:00 +5°C° 0.1 mm 9 mps 749 mmHg 90%
11:00 +5°C° 0.1 mm 9 mps 749 mmHg 91%
12:00 +5°C° 0.1 mm 9 mps 749 mmHg 91%
13:00 +5°C° 0 mm 8 mps 749 mmHg 91%
14:00 +6°C° 0 mm 7 mps 750 mmHg 91%
15:00 +6°C° 0 mm 7 mps 750 mmHg 91%
16:00 +7°C° 0.1 mm 6 mps 751 mmHg 89%
17:00 +8°C° 0.1 mm 4 mps 751 mmHg 87%
18:00 +9°C° 0.1 mm 3 mps 751 mmHg 84%
19:00 +9°C° 0 mm 3 mps 752 mmHg 86%
20:00 +8°C° 0 mm 2 mps 753 mmHg 87%
21:00 +7°C° 0 mm 2 mps 753 mmHg 88%
22:00 +8°C° 0 mm 1 mps 753 mmHg 85%
23:00 +8°C° 0 mm 1 mps 754 mmHg 83%

22 April, Thursday

Time Temperature Precipitation Wind Pressure Humidity
00:00 +8°C° 0 mm 1 mps 754 mmHg 80%
01:00 +8°C° 0 mm 1 mps 754 mmHg 81%
02:00 +7°C° 0 mm 1 mps 754 mmHg 82%
03:00 +6°C° 0 mm 2 mps 755 mmHg 82%
04:00 +6°C° 0 mm 2 mps 755 mmHg 83%
05:00 +6°C° 0 mm 2 mps 755 mmHg 84%
06:00 +6°C° 0 mm 2 mps 755 mmHg 85%
07:00 +7°C° 0 mm 3 mps 755 mmHg 83%
08:00 +8°C° 0 mm 3 mps 756 mmHg 80%
09:00 +9°C° 0 mm 3 mps 756 mmHg 78%
10:00 +11°C° 0 mm 3 mps 756 mmHg 72%
11:00 +12°C° 0 mm 4 mps 756 mmHg 67%
12:00 +13°C° 0 mm 4 mps 756 mmHg 62%
13:00 +14°C° 0.2 mm 4 mps 755 mmHg 60%
14:00 +14°C° 0.2 mm 4 mps 755 mmHg 58%
15:00 +15°C° 0.2 mm 4 mps 755 mmHg 56%
16:00 +14°C° 0.3 mm 4 mps 755 mmHg 60%
17:00 +14°C° 0.3 mm 4 mps 755 mmHg 64%
18:00 +13°C° 0.3 mm 3 mps 755 mmHg 68%
19:00 +12°C° 0.1 mm 4 mps 755 mmHg 74%
20:00 +10°C° 0.1 mm 5 mps 755 mmHg 81%
21:00 +9°C° 0.1 mm 5 mps 756 mmHg 87%
22:00 +8°C° 0 mm 5 mps 756 mmHg 88%
23:00 +7°C° 0 mm 5 mps 756 mmHg 89%

23 April, Friday

Time Temperature Precipitation Wind Pressure Humidity
00:00 +7°C° 0 mm 4 mps 756 mmHg 89%
01:00 +7°C° 0 mm 4 mps 756 mmHg 91%
02:00 +6°C° 0 mm 4 mps 756 mmHg 92%
03:00 +7°C° 0 mm 3 mps 756 mmHg 93%
04:00 +7°C° 0 mm 3 mps 755 mmHg 94%
05:00 +7°C° 0 mm 3 mps 755 mmHg 94%
06:00 +7°C° 0 mm 3 mps 755 mmHg 95%
07:00 +8°C° 0 mm 3 mps 755 mmHg 89%
08:00 +9°C° 0 mm 3 mps 755 mmHg 84%
09:00 +10°C° 0 mm 4 mps 755 mmHg 78%
10:00 +11°C° 0 mm 3 mps 755 mmHg 74%
11:00 +12°C° 0 mm 3 mps 755 mmHg 69%
12:00 +13°C° 0 mm 3 mps 754 mmHg 65%
13:00 +13°C° 0.2 mm 3 mps 754 mmHg 64%
14:00 +13°C° 0.2 mm 3 mps 754 mmHg 63%
15:00 +13°C° 0.2 mm 3 mps 753 mmHg 62%
16:00 +13°C° 0.1 mm 3 mps 753 mmHg 65%
17:00 +12°C° 0.1 mm 3 mps 753 mmHg 67%
18:00 +12°C° 0.1 mm 3 mps 753 mmHg 69%
19:00 +11°C° 0 mm 3 mps 753 mmHg 75%
20:00 +10°C° 0 mm 3 mps 752 mmHg 80%
21:00 +9°C° 0 mm 3 mps 752 mmHg 85%
22:00 +8°C° 0 mm 3 mps 752 mmHg 86%
23:00 +8°C° 0 mm 2 mps 752 mmHg 87%
Show more